• Processing (Info)

  • MPEC 2023-O71 : 2012 FD10 = 2020 QT5

    The following Minor Planet Electronic Circular may be linked-to from your own Web pages, but must not otherwise be redistributed electronically.

    A form allowing access to any MPEC is at the bottom of this page.


    Read MPEC 2023-O70 Read MPEC 2023-O72


    M.P.E.C. 2023-O71                                 Issued 2023 July 24, 18:24 UT
    
         The Minor Planet Electronic Circulars contain information on unusual
             minor planets, routine data on comets and natural satellites,
             and occasional editorial announcements.  They are published
        on behalf of Division F of the International Astronomical Union by the
              Minor Planet Center, Smithsonian Astrophysical Observatory,
                              Cambridge, MA 02138, U.S.A.
    			  
                 Prepared using the Tamkin Foundation Computer Network
    
                                  MPC@CFA.HARVARD.EDU
                URL https://www.minorplanetcenter.net/    ISSN 1523-6714
    
                              2012 FD10 = 2020 QT5                           
    
    Orbital elements:
    2012 FD10 = 2020 QT5                                     Earth MOID = 0.3384 AU
    Id. P. VanWylen
    Epoch 2023 Sept. 13.0 TT = JDT 2460200.5                Veres                   
    M 285.98391              (2000.0)            P               Q                  
    n   0.50695281     Peri.  238.71507     -0.60769836     +0.79099705             
    a   1.5577259      Node   352.54930     -0.40332990     -0.38429838             
    e   0.2021095      Incl.   33.14332     -0.68412550     -0.47606556             
    P   1.94           H   21.47          G   0.15           U   4                  
    Residuals in seconds of arc
    120319 F51  0.1-  0.1-    120320 926  0.5+  0.0     120320 F65  0.2+  0.5-
    120319 F51  0.1-  0.4-    120320 926  0.3+  0.3+    120320 F65  0.1+  0.4-
    120319 F51  0.2+  0.2-    120320 926  1.1+  0.1-    120320 F65  0.2+  0.5-
    120319 F51  0.1-  0.3-    120320 926  1.1+  0.7+    120320 F65  0.3+  0.5-
    120319 033  0.6+  0.0     120320 568  0.2-  0.5-    120320 F65  0.4+  0.4-
    120319 033  0.5+  0.0     120320 926  0.5+  0.7+    120320 F65  0.0   0.6-
    120320 926  1.9-  1.6+    120320 926  0.9+  0.0     120320 F65  0.2+  0.5-
    120320 926  1.9-  3.1+    120320 568  0.2-  0.4-    200817 F51  0.2-  0.3+
    120320 926  0.9-  2.0+    120320 926  0.7+  0.2+    200817 F51  0.4-  0.1+
    120320 926  1.0-  2.4+    120320 926  1.2+  0.1-    200817 F51  0.0   0.1+
    120320 926  1.4-  2.4+    120320 568  0.2-  0.5-    200817 F51  0.6+  0.3-
    120320 926  1.6-  1.7+    120320 926  1.4+  0.0     200818 F51  0.1-  0.0
    120320 926  0.9-  1.5+    120320 F65  0.2+  0.5-    200818 F51  0.1+  0.2-
    120320 926  0.8-  1.6+    120320 F65  0.1+  0.5-    200818 F51  0.1+  0.1+
    120320 926  1.0-  1.2+    120320 F65  0.2+  0.4-    200823 F51  0.0   0.1-
    120320 926  0.3-  2.0+    120320 F65  0.2+  0.5-    200823 F51  0.1-  0.0
    120320 926  0.1-  0.7+    120320 F65  0.2+  0.6-    200823 F51  0.1+  0.1-
    
    Ephemeris:
    2012 FD10                a,e,i = 1.56, 0.20, 33                  q = 1.2429
    Date    TT    R. A. (2000) Decl.     Delta      r    Elong.  Phase     V
    2023 06 24    06 35 45.0 +43 28 56   2.6485  1.7366    20.8    12.0    25.5
    ...
    2023 07 09    07 25 49.4 +41 29 08   2.6302  1.7042    19.3    11.4    25.4
    ...
    2023 07 17    07 51 34.2 +40 00 46   2.6161  1.6858    18.8    11.2    25.4
    ...
    2023 07 23    08 10 20.6 +38 44 03   2.6035  1.6715    18.5    11.1    25.4
    2023 07 24    08 13 25.4 +38 30 26   2.6012  1.6691    18.5    11.1    25.3
    2023 07 25    08 16 29.4 +38 16 35   2.5989  1.6666    18.5    11.1    25.3
    ...
    2023 07 31    08 34 35.6 +36 48 44   2.5839  1.6518    18.4    11.2    25.3
    ...
    2023 08 08    08 57 56.3 +34 39 32   2.5613  1.6314    18.5    11.4    25.3
    ...
    2023 08 23    09 39 22.0 +30 03 43   2.5103  1.5916    19.3    12.2    25.2
    
    M. P. C. Staff               (C) Copyright 2023 MPC           M.P.E.C. 2023-O71
    


    Read MPEC 2023-O70 Read MPEC 2023-O72


    MPEC number:

    Enter an MPEC number in one of the following forms:

    • 1997-B01 (the full form)
    • J97B01 (the packed version of the full form)
    • B01 (the abbreviated form)